"Date","Time","Latitude","Longitude","Speed","Course","Altitude","Satellites","GPS quality","C1","0.25um","0.28um","0.3um","0.35um","0.4um","0.45um","0.5um","0.58um","C2","0.65um","0.7um","0.8um","1.0um","1.3um","1.6um","2.0um","2.5um","C3","3.0um","3.5um","4.0um","5.0um","6.5um","7.5um","8.5um","10.0um","C4","12.5um","15.0um","17.5um","20.0um","25.0um","30.0um","32.0um",">32um"
21/08/11,06:38:21,67 49.6693 N,020 20.8216 E,79.74,213.45,450.3,09,1,N1,82,76,71,68,64,59,57,56,N1,55,54,53,52,50,50,48,39,n1,35,34,28,24,0,0,0,0,n1,0,0,0,0,0,0,0,0
21/08/11,06:38:27,67 49.5375 N,020 20.5879 E,101.62,214.25,452.4,09,1,N2,80,74,69,66,61,57,55,54,N2,53,52,51,49,49,47,39,34,n2,27,24,12,8,0,0,0,0,n2,0,0,0,0,0,0,0,0
21/08/11,06:38:32,67 49.4087 N,020 20.3660 E,113.24,211.96,460.1,09,1,N3,129,123,118,115,110,105,103,102,N3,101,100,99,98,97,96,93,90,n3,77,77,75,70,46,30,0,0,n3,0,0,0,0,0,0,0,0
21/08/11,06:38:38,67 49.2511 N,020 20.0918 E,114.27,213.22,503.9,09,1,N4,54,48,42,39,35,32,29,28,N4,27,26,26,25,24,21,21,16,n4,14,14,12,8,0,0,0,0,n4,0,0,0,0,0,0,0,0
21/08/11,06:38:45,67 49.0651 N,020 19.7638 E,115.46,213.70,561.9,09,1,N5,102,96,92,88,85,80,78,77,N5,76,75,74,73,70,70,70,69,n5,43,36,30,16,16,0,0,0,n5,0,0,0,0,0,0,0,0
21/08/11,06:38:51,67 48.9058 N,020 19.4733 E,115.93,214.57,612.7,09,1,N6,53,48,43,40,36,33,30,29,N6,29,28,28,27,26,26,26,21,n6,11,4,4,0,0,0,0,0,n6,0,0,0,0,0,0,0,0
21/08/11,06:38:57,67 48.7484 N,020 19.1772 E,115.33,216.23,661.7,09,1,N7,70,63,58,54,48,43,41,40,N7,38,37,37,36,35,35,32,29,n7,20,12,12,8,0,0,0,0,n7,0,0,0,0,0,0,0,0
21/08/11,06:39:02,67 48.6179 N,020 18.9183 E,118.44,216.91,690.1,09,1,N8,80,74,69,66,63,59,58,57,N8,56,55,54,54,52,51,50,48,n8,38,37,37,32,16,0,0,0,n8,0,0,0,0,0,0,0,0
21/08/11,06:39:08,67 48.4555 N,020 18.6062 E,120.98,215.45,723.8,09,1,N9,54,49,44,41,38,35,33,33,N9,32,31,31,31,29,28,28,28,n9,20,11,8,8,0,0,0,0,n9,0,0,0,0,0,0,0,0
21/08/11,06:39:15,67 48.2565 N,020 18.2453 E,125.30,214.54,756.0,09,1,N0,80,74,70,67,64,62,60,60,N0,60,60,59,59,59,58,57,54,n0,43,38,29,24,16,0,0,0,n0,0,0,0,0,0,0,0,0
21/08/11,06:39:21,67 48.0778 N,020 17.9214 E,132.34,214.21,776.8,09,1,N1,43,38,33,30,27,25,23,23,N1,22,22,22,21,21,20,20,19,n1,19,15,12,8,0,0,0,0,n1,0,0,0,0,0,0,0,0
21/08/11,06:39:27,67 47.8958 N,020 17.5964 E,131.26,214.11,819.4,09,1,N2,39,33,29,26,22,18,17,16,N2,15,14,14,14,12,12,11,11,n2,10,6,0,0,0,0,0,0,n2,0,0,0,0,0,0,0,0
21/08/11,06:39:32,67 47.7472 N,020 17.3305 E,128.74,214.10,859.7,09,1,N3,42,38,35,34,31,30,29,29,N3,28,28,28,27,27,27,26,26,n3,16,11,8,8,0,0,0,0,n3,0,0,0,0,0,0,0,0
21/08/11,06:39:38,67 47.5668 N,020 17.0376 E,126.60,208.95,910.6,09,1,N4,21,19,18,17,16,15,15,14,N4,14,14,14,13,13,13,13,13,n4,10,10,9,0,0,0,0,0,n4,0,0,0,0,0,0,0,0
21/08/11,06:39:45,67 47.3536 N,020 16.7795 E,118.37,203.78,981.7,09,1,N5,12,11,10,10,9,9,8,8,N5,8,8,8,8,7,7,7,7,n5,6,0,0,0,0,0,0,0,n5,0,0,0,0,0,0,0,0
21/08/11,06:39:51,67 47.1730 N,020 16.5831 E,116.61,202.07,1036.9,09,1,N6,25,20,15,13,10,8,7,7,N6,6,6,5,5,4,4,1,0,n6,0,0,0,0,0,0,0,0,n6,0,0,0,0,0,0,0,0
21/08/11,06:39:57,67 46.9965 N,020 16.3867 E,114.13,202.78,1092.4,09,1,N7,48,43,38,36,33,32,31,30,N7,29,29,28,28,27,26,24,18,n7,4,4,4,0,0,0,0,0,n7,0,0,0,0,0,0,0,0
21/08/11,06:40:02,67 46.8515 N,020 16.2242 E,113.25,203.22,1132.0,09,1,N8,29,24,19,17,14,13,12,11,N8,11,9,9,8,8,7,7,0,n8,0,0,0,0,0,0,0,0,n8,0,0,0,0,0,0,0,0
21/08/11,06:40:08,67 46.6791 N,020 16.0302 E,112.42,203.17,1175.2,09,1,N9,57,52,47,45,42,40,40,39,N9,38,37,36,36,35,33,30,30,n9,24,21,21,16,16,0,0,0,n9,0,0,0,0,0,0,0,0
21/08/11,06:40:15,67 46.4802 N,020 15.8048 E,111.35,203.33,1226.7,09,1,N0,28,22,18,15,13,11,10,10,N0,9,8,7,6,4,2,1,0,n0,0,0,0,0,0,0,0,0,n0,0,0,0,0,0,0,0,0
21/08/11,06:40:21,67 46.3079 N,020 15.6094 E,113.52,203.29,1263.2,09,1,N1,46,41,36,34,31,29,29,28,N1,27,26,25,24,23,22,19,18,n1,10,8,8,8,0,0,0,0,n1,0,0,0,0,0,0,0,0
21/08/11,06:40:27,67 46.1299 N,020 15.4079 E,117.60,203.24,1295.2,09,1,N2,62,57,53,50,48,46,45,44,N2,43,43,42,41,40,39,37,34,n2,20,15,12,8,0,0,0,0,n2,0,0,0,0,0,0,0,0
21/08/11,06:40:32,67 45.9781 N,020 15.2363 E,119.90,203.22,1323.7,09,1,N3,43,39,35,32,30,29,27,27,N3,26,25,25,24,24,22,18,18,n3,9,9,8,8,0,0,0,0,n3,0,0,0,0,0,0,0,0
21/08/11,06:40:38,67 45.7923 N,020 15.0252 E,122.55,203.36,1357.3,09,1,N4,41,36,33,30,28,27,25,25,N4,23,23,22,21,20,20,19,17,n4,17,12,12,8,0,0,0,0,n4,0,0,0,0,0,0,0,0
21/08/11,06:40:45,67 45.5714 N,020 14.7695 E,125.33,203.89,1396.9,09,1,N5,28,23,19,17,15,13,12,11,N5,10,10,9,8,8,7,3,0,n5,0,0,0,0,0,0,0,0,n5,0,0,0,0,0,0,0,0
21/08/11,06:40:51,67 45.3792 N,020 14.5435 E,127.24,203.95,1432.4,09,1,N6,23,18,14,12,10,8,7,6,N6,5,5,4,3,2,1,0,0,n6,0,0,0,0,0,0,0,0,n6,0,0,0,0,0,0,0,0
21/08/11,06:40:57,67 45.1853 N,020 14.3121 E,128.40,204.56,1470.7,10,1,N7,45,40,35,33,31,29,28,27,N7,26,26,25,24,22,21,18,12,n7,9,8,8,8,0,0,0,0,n7,0,0,0,0,0,0,0,0
21/08/11,06:41:02,67 45.0234 N,020 14.1148 E,128.81,204.87,1504.0,10,1,N8,64,59,55,53,51,49,48,48,N8,47,46,45,44,43,43,42,42,n8,36,35,32,32,16,0,0,0,n8,0,0,0,0,0,0,0,0
21/08/11,06:41:08,67 44.8288 N,020 13.8753 E,129.29,205.35,1544.6,10,1,N9,31,26,23,21,19,18,17,16,N9,15,15,14,14,13,11,11,11,n9,10,7,4,0,0,0,0,0,n9,0,0,0,0,0,0,0,0
21/08/11,06:41:15,67 44.6020 N,020 13.5897 E,129.96,205.79,1591.2,10,1,N0,22,17,14,12,10,9,8,7,N0,7,6,6,5,4,4,3,0,n0,0,0,0,0,0,0,0,0,n0,0,0,0,0,0,0,0,0
21/08/11,06:41:21,67 44.4098 N,020 13.3427 E,128.06,206.23,1637.5,10,1,N1,27,23,20,18,16,15,14,13,N1,13,12,12,11,10,9,7,7,n1,4,0,0,0,0,0,0,0,n1,0,0,0,0,0,0,0,0
21/08/11,06:41:27,67 44.2207 N,020 13.0934 E,126.83,206.65,1682.8,10,1,N2,18,15,13,12,11,10,9,8,N2,8,8,8,7,7,7,7,6,n2,1,1,0,0,0,0,0,0,n2,0,0,0,0,0,0,0,0
21/08/11,06:41:32,67 44.0650 N,020 12.8856 E,125.67,206.90,1718.5,10,1,N3,10,8,6,5,3,3,2,2,N3,1,1,0,0,0,0,0,0,n3,0,0,0,0,0,0,0,0,n3,0,0,0,0,0,0,0,0
21/08/11,06:41:38,67 43.8796 N,020 12.6363 E,125.05,206.98,1758.6,10,1,N4,21,19,18,17,17,16,15,15,N4,15,15,15,15,15,15,14,14,n4,9,0,0,0,0,0,0,0,n4,0,0,0,0,0,0,0,0
21/08/11,06:41:45,67 43.6646 N,020 12.3464 E,124.54,207.13,1804.8,10,1,N5,4,3,2,2,1,1,1,0,N5,0,0,0,0,0,0,0,0,n5,0,0,0,0,0,0,0,0,n5,0,0,0,0,0,0,0,0
21/08/11,06:41:51,67 43.4807 N,020 12.0996 E,124.15,206.87,1844.9,10,1,N6,3,3,2,1,1,0,0,0,N6,0,0,0,0,0,0,0,0,n6,0,0,0,0,0,0,0,0,n6,0,0,0,0,0,0,0,0
21/08/11,06:41:57,67 43.2966 N,020 11.8566 E,123.89,206.50,1884.4,10,1,N7,5,4,3,2,2,1,1,1,N7,1,0,0,0,0,0,0,0,n7,0,0,0,0,0,0,0,0,n7,0,0,0,0,0,0,0,0
21/08/11,06:42:02,67 43.1434 N,020 11.6573 E,123.29,206.14,1917.6,10,1,N8,6,5,4,4,3,3,2,2,N8,2,2,2,2,2,1,1,0,n8,0,0,0,0,0,0,0,0,n8,0,0,0,0,0,0,0,0
21/08/11,06:42:08,67 42.9595 N,020 11.4232 E,122.90,205.56,1956.4,10,1,N9,9,8,7,7,7,7,6,6,N9,6,6,6,6,6,6,5,5,n9,0,0,0,0,0,0,0,0,n9,0,0,0,0,0,0,0,0
21/08/11,06:42:15,67 42.7446 N,020 11.1568 E,122.39,204.94,2002.2,10,1,N0,2,1,1,1,0,0,0,0,N0,0,0,0,0,0,0,0,0,n0,0,0,0,0,0,0,0,0,n0,0,0,0,0,0,0,0,0
21/08/11,06:42:21,67 42.5594 N,020 10.9344 E,122.64,204.31,2038.2,10,1,N1,2,2,1,1,0,0,0,0,N1,0,0,0,0,0,0,0,0,n1,0,0,0,0,0,0,0,0,n1,0,0,0,0,0,0,0,0
21/08/11,06:42:27,67 42.3704 N,020 10.7157 E,124.91,203.43,2068.7,10,1,N2,1,1,0,0,0,0,0,0,N2,0,0,0,0,0,0,0,0,n2,0,0,0,0,0,0,0,0,n2,0,0,0,0,0,0,0,0
21/08/11,06:42:32,67 42.2105 N,020 10.5372 E,125.79,202.85,2096.5,10,1,N3,2,2,1,1,1,1,1,1,N3,0,0,0,0,0,0,0,0,n3,0,0,0,0,0,0,0,0,n3,0,0,0,0,0,0,0,0
21/08/11,06:42:38,67 42.0162 N,020 10.3276 E,126.74,202.02,2130.6,10,1,N4,5,5,5,5,5,5,5,5,N4,5,5,5,5,5,5,5,5,n4,0,0,0,0,0,0,0,0,n4,0,0,0,0,0,0,0,0
21/08/11,06:42:45,67 41.7867 N,020 10.0896 E,127.55,201.31,2172.2,10,1,N5,2,2,1,1,1,1,1,1,N5,1,1,1,1,1,1,0,0,n5,0,0,0,0,0,0,0,0,n5,0,0,0,0,0,0,0,0
21/08/11,06:42:51,67 41.5884 N,020 09.8900 E,127.99,200.83,2208.8,10,1,N6,1,0,0,0,0,0,0,0,N6,0,0,0,0,0,0,0,0,n6,0,0,0,0,0,0,0,0,n6,0,0,0,0,0,0,0,0
21/08/11,06:42:57,67 41.3890 N,020 09.6937 E,128.31,200.43,2245.1,10,1,N7,0,0,0,0,0,0,0,0,N7,0,0,0,0,0,0,0,0,n7,0,0,0,0,0,0,0,0,n7,0,0,0,0,0,0,0,0
21/08/11,06:43:02,67 41.2224 N,020 09.5310 E,128.48,200.32,2276.0,10,1,N8,1,0,0,0,0,0,0,0,N8,0,0,0,0,0,0,0,0,n8,0,0,0,0,0,0,0,0,n8,0,0,0,0,0,0,0,0
21/08/11,06:43:08,67 41.0222 N,020 09.3367 E,128.45,200.30,2313.2,10,1,N9,0,0,0,0,0,0,0,0,N9,0,0,0,0,0,0,0,0,n9,0,0,0,0,0,0,0,0,n9,0,0,0,0,0,0,0,0
21/08/11,06:43:15,67 40.7903 N,020 09.1104 E,126.73,200.42,2363.6,10,1,N0,0,0,0,0,0,0,0,0,N0,0,0,0,0,0,0,0,0,n0,0,0,0,0,0,0,0,0,n0,0,0,0,0,0,0,0,0
21/08/11,06:43:21,67 40.5969 N,020 08.9177 E,123.80,201.01,2411.9,10,1,N1,2,2,1,1,1,1,1,1,N1,1,1,1,1,1,1,1,0,n1,0,0,0,0,0,0,0,0,n1,0,0,0,0,0,0,0,0
21/08/11,06:43:27,67 40.4082 N,020 08.7234 E,121.26,201.55,2460.3,10,1,N2,1,1,0,0,0,0,0,0,N2,0,0,0,0,0,0,0,0,n2,0,0,0,0,0,0,0,0,n2,0,0,0,0,0,0,0,0
21/08/11,06:43:32,67 40.2545 N,020 08.5601 E,119.20,202.13,2500.0,10,1,N3,1,1,0,0,0,0,0,0,N3,0,0,0,0,0,0,0,0,n3,0,0,0,0,0,0,0,0,n3,0,0,0,0,0,0,0,0
21/08/11,06:43:38,67 40.0740 N,020 08.3616 E,117.18,203.00,2545.6,10,1,N4,1,0,0,0,0,0,0,0,N4,0,0,0,0,0,0,0,0,n4,0,0,0,0,0,0,0,0,n4,0,0,0,0,0,0,0,0
21/08/11,06:43:45,67 39.8681 N,020 08.1243 E,115.53,203.95,2594.3,10,1,N5,1,1,0,0,0,0,0,0,N5,0,0,0,0,0,0,0,0,n5,0,0,0,0,0,0,0,0,n5,0,0,0,0,0,0,0,0
21/08/11,06:43:51,67 39.6943 N,020 07.9158 E,114.85,204.79,2631.5,10,1,N6,1,1,1,1,1,0,0,0,N6,0,0,0,0,0,0,0,0,n6,0,0,0,0,0,0,0,0,n6,0,0,0,0,0,0,0,0
21/08/11,06:43:57,67 39.5193 N,020 07.7038 E,116.50,204.66,2661.8,10,1,N7,1,0,0,0,0,0,0,0,N7,0,0,0,0,0,0,0,0,n7,0,0,0,0,0,0,0,0,n7,0,0,0,0,0,0,0,0
21/08/11,06:44:02,67 39.3711 N,020 07.5258 E,118.32,204.43,2683.5,10,1,N8,1,1,0,0,0,0,0,0,N8,0,0,0,0,0,0,0,0,n8,0,0,0,0,0,0,0,0,n8,0,0,0,0,0,0,0,0
21/08/11,06:44:08,67 39.1892 N,020 07.3111 E,120.94,203.99,2709.4,10,1,N9,1,1,1,1,0,0,0,0,N9,0,0,0,0,0,0,0,0,n9,0,0,0,0,0,0,0,0,n9,0,0,0,0,0,0,0,0
21/08/11,06:44:15,67 38.9723 N,020 07.0581 E,123.31,203.93,2740.9,10,1,N0,1,1,1,1,0,0,0,0,N0,0,0,0,0,0,0,0,0,n0,0,0,0,0,0,0,0,0,n0,0,0,0,0,0,0,0,0
21/08/11,06:44:21,67 38.7829 N,020 06.8370 E,125.58,203.94,2766.9,10,1,N1,2,1,1,1,1,0,0,0,N1,0,0,0,0,0,0,0,0,n1,0,0,0,0,0,0,0,0,n1,0,0,0,0,0,0,0,0
21/08/11,06:44:27,67 38.5904 N,020 06.6129 E,127.41,203.88,2793.8,10,1,N2,1,1,0,0,0,0,0,0,N2,0,0,0,0,0,0,0,0,n2,0,0,0,0,0,0,0,0,n2,0,0,0,0,0,0,0,0
21/08/11,06:44:32,67 38.4287 N,020 06.4266 E,127.69,203.65,2820.9,10,1,N3,1,0,0,0,0,0,0,0,N3,0,0,0,0,0,0,0,0,n3,0,0,0,0,0,0,0,0,n3,0,0,0,0,0,0,0,0
21/08/11,06:44:38,67 38.2351 N,020 06.2048 E,127.02,203.53,2855.8,10,1,N4,1,0,0,0,0,0,0,0,N4,0,0,0,0,0,0,0,0,n4,0,0,0,0,0,0,0,0,n4,0,0,0,0,0,0,0,0
21/08/11,06:44:45,67 38.0094 N,020 05.9469 E,126.97,203.52,2895.7,10,1,N5,2,2,2,1,1,1,1,1,N5,1,1,1,1,1,1,0,0,n5,0,0,0,0,0,0,0,0,n5,0,0,0,0,0,0,0,0
21/08/11,06:44:51,67 37.8160 N,020 05.7269 E,126.99,203.32,2928.5,10,1,N6,0,0,0,0,0,0,0,0,N6,0,0,0,0,0,0,0,0,n6,0,0,0,0,0,0,0,0,n6,0,0,0,0,0,0,0,0
21/08/11,06:44:57,67 37.6220 N,020 05.5089 E,127.02,203.12,2960.5,10,1,N7,0,0,0,0,0,0,0,0,N7,0,0,0,0,0,0,0,0,n7,0,0,0,0,0,0,0,0,n7,0,0,0,0,0,0,0,0
21/08/11,06:45:02,67 37.4600 N,020 05.3279 E,127.34,203.03,2985.7,09,1,N8,0,0,0,0,0,0,0,0,N8,0,0,0,0,0,0,0,0,n8,0,0,0,0,0,0,0,0,n8,0,0,0,0,0,0,0,0
21/08/11,06:45:08,67 37.2652 N,020 05.1121 E,127.29,202.82,3016.8,09,1,N9,8,7,7,6,6,5,5,5,N9,5,5,5,5,5,5,5,5,n9,0,0,0,0,0,0,0,0,n9,0,0,0,0,0,0,0,0
21/08/11,06:45:15,67 37.0378 N,020 04.8624 E,127.18,202.64,3053.0,09,1,N0,2,2,1,1,0,0,0,0,N0,0,0,0,0,0,0,0,0,n0,0,0,0,0,0,0,0,0,n0,0,0,0,0,0,0,0,0
21/08/11,06:45:21,67 36.8429 N,020 04.6501 E,127.02,202.58,3084.2,09,1,N1,3,2,2,1,1,1,0,0,N1,0,0,0,0,0,0,0,0,n1,0,0,0,0,0,0,0,0,n1,0,0,0,0,0,0,0,0
21/08/11,06:45:27,67 36.6475 N,020 04.4406 E,127.16,202.05,3114.1,09,1,N2,2,1,1,1,0,0,0,0,N2,0,0,0,0,0,0,0,0,n2,0,0,0,0,0,0,0,0,n2,0,0,0,0,0,0,0,0
21/08/11,06:45:32,67 36.4848 N,020 04.2661 E,127.08,202.34,3140.1,09,1,N3,3,2,2,1,1,0,0,0,N3,0,0,0,0,0,0,0,0,n3,0,0,0,0,0,0,0,0,n3,0,0,0,0,0,0,0,0
21/08/11,06:45:38,67 36.2898 N,020 04.0555 E,127.07,202.48,3171.0,10,1,N4,2,1,1,1,1,0,0,0,N4,0,0,0,0,0,0,0,0,n4,0,0,0,0,0,0,0,0,n4,0,0,0,0,0,0,0,0
21/08/11,06:45:45,67 36.0627 N,020 03.8093 E,126.87,202.65,3209.0,10,1,N5,4,4,3,3,2,2,1,1,N5,1,1,1,1,1,1,0,0,n5,0,0,0,0,0,0,0,0,n5,0,0,0,0,0,0,0,0
21/08/11,06:45:51,67 35.8686 N,020 03.5975 E,126.54,202.67,3242.7,10,1,N6,3,2,2,1,1,0,0,0,N6,0,0,0,0,0,0,0,0,n6,0,0,0,0,0,0,0,0,n6,0,0,0,0,0,0,0,0
21/08/11,06:45:57,67 35.6750 N,020 03.3839 E,126.43,202.94,3276.1,10,1,N7,3,2,2,2,1,0,0,0,N7,0,0,0,0,0,0,0,0,n7,0,0,0,0,0,0,0,0,n7,0,0,0,0,0,0,0,0
21/08/11,06:46:02,67 35.5139 N,020 03.2063 E,126.29,202.71,3303.7,10,1,N8,3,2,2,1,1,0,0,0,N8,0,0,0,0,0,0,0,0,n8,0,0,0,0,0,0,0,0,n8,0,0,0,0,0,0,0,0
21/08/11,06:46:08,67 35.3210 N,020 02.9929 E,126.06,203.00,3335.5,10,1,N9,2,2,1,1,1,0,0,0,N9,0,0,0,0,0,0,0,0,n9,0,0,0,0,0,0,0,0,n9,0,0,0,0,0,0,0,0
21/08/11,06:46:15,67 35.0964 N,020 02.7419 E,125.93,203.13,3373.4,10,1,N0,2,1,1,1,1,0,0,0,N0,0,0,0,0,0,0,0,0,n0,0,0,0,0,0,0,0,0,n0,0,0,0,0,0,0,0,0
21/08/11,06:46:21,67 34.9043 N,020 02.5258 E,125.86,203.29,3406.4,10,1,N1,1,1,0,0,0,0,0,0,N1,0,0,0,0,0,0,0,0,n1,0,0,0,0,0,0,0,0,n1,0,0,0,0,0,0,0,0
21/08/11,06:46:27,67 34.7127 N,020 02.3088 E,125.74,203.41,3438.8,10,1,N2,1,1,1,1,0,0,0,0,N2,0,0,0,0,0,0,0,0,n2,0,0,0,0,0,0,0,0,n2,0,0,0,0,0,0,0,0
21/08/11,06:46:32,67 34.5533 N,020 02.1265 E,125.64,203.61,3465.7,10,1,N3,2,2,2,2,2,2,2,2,N3,2,1,1,1,1,1,1,0,n3,0,0,0,0,0,0,0,0,n3,0,0,0,0,0,0,0,0
21/08/11,06:46:38,67 34.3626 N,020 01.9060 E,125.40,203.78,3496.6,10,1,N4,0,0,0,0,0,0,0,0,N4,0,0,0,0,0,0,0,0,n4,0,0,0,0,0,0,0,0,n4,0,0,0,0,0,0,0,0
21/08/11,06:46:45,67 34.1407 N,020 01.6470 E,125.35,204.04,3531.3,10,1,N5,1,1,0,0,0,0,0,0,N5,0,0,0,0,0,0,0,0,n5,0,0,0,0,0,0,0,0,n5,0,0,0,0,0,0,0,0
21/08/11,06:46:51,67 33.9508 N,020 01.4245 E,125.27,204.16,3560.4,10,1,N6,1,0,0,0,0,0,0,0,N6,0,0,0,0,0,0,0,0,n6,0,0,0,0,0,0,0,0,n6,0,0,0,0,0,0,0,0
21/08/11,06:46:57,67 33.7610 N,020 01.2018 E,125.25,204.14,3588.7,10,1,N7,0,0,0,0,0,0,0,0,N7,0,0,0,0,0,0,0,0,n7,0,0,0,0,0,0,0,0,n7,0,0,0,0,0,0,0,0
21/08/11,06:47:02,67 33.6031 N,020 01.0168 E,124.99,204.10,3613.5,10,1,N8,1,1,0,0,0,0,0,0,N8,0,0,0,0,0,0,0,0,n8,0,0,0,0,0,0,0,0,n8,0,0,0,0,0,0,0,0
21/08/11,06:47:08,67 33.4139 N,020 00.7951 E,124.96,204.16,3644.5,10,1,N9,1,1,0,0,0,0,0,0,N9,0,0,0,0,0,0,0,0,n9,0,0,0,0,0,0,0,0,n9,0,0,0,0,0,0,0,0
21/08/11,06:47:15,67 33.1932 N,020 00.5366 E,124.79,204.07,3679.9,10,1,N0,0,0,0,0,0,0,0,0,N0,0,0,0,0,0,0,0,0,n0,0,0,0,0,0,0,0,0,n0,0,0,0,0,0,0,0,0
21/08/11,06:47:21,67 33.0040 N,020 00.3161 E,124.65,203.87,3709.6,10,1,N1,1,1,0,0,0,0,0,0,N1,0,0,0,0,0,0,0,0,n1,0,0,0,0,0,0,0,0,n1,0,0,0,0,0,0,0,0
21/08/11,06:47:27,67 32.8140 N,020 00.0974 E,124.94,203.65,3734.8,10,1,N2,1,0,0,0,0,0,0,0,N2,0,0,0,0,0,0,0,0,n2,0,0,0,0,0,0,0,0,n2,0,0,0,0,0,0,0,0
21/08/11,06:47:32,67 32.6508 N,019 59.9139 E,129.46,203.26,3748.8,10,1,N3,1,1,0,0,0,0,0,0,N3,0,0,0,0,0,0,0,0,n3,0,0,0,0,0,0,0,0,n3,0,0,0,0,0,0,0,0
21/08/11,06:47:38,67 32.4495 N,019 59.6934 E,132.39,202.59,3766.6,10,1,N4,0,0,0,0,0,0,0,0,N4,0,0,0,0,0,0,0,0,n4,0,0,0,0,0,0,0,0,n4,0,0,0,0,0,0,0,0
21/08/11,06:47:45,67 32.2079 N,019 59.4403 E,135.40,201.55,3789.6,10,1,N5,0,0,0,0,0,0,0,0,N5,0,0,0,0,0,0,0,0,n5,0,0,0,0,0,0,0,0,n5,0,0,0,0,0,0,0,0
21/08/11,06:47:51,67 31.9961 N,019 59.2254 E,137.27,200.87,3813.4,10,1,N6,0,0,0,0,0,0,0,0,N6,0,0,0,0,0,0,0,0,n6,0,0,0,0,0,0,0,0,n6,0,0,0,0,0,0,0,0
21/08/11,06:47:57,67 31.7815 N,019 59.0134 E,138.52,200.52,3840.6,10,1,N7,0,0,0,0,0,0,0,0,N7,0,0,0,0,0,0,0,0,n7,0,0,0,0,0,0,0,0,n7,0,0,0,0,0,0,0,0
21/08/11,06:48:02,67 31.6032 N,019 58.8396 E,137.21,200.57,3869.8,10,1,N8,7,7,6,6,6,6,6,6,N8,6,6,6,6,6,6,6,5,n8,0,0,0,0,0,0,0,0,n8,0,0,0,0,0,0,0,0
21/08/11,06:48:08,67 31.3933 N,019 58.6352 E,134.06,200.34,3908.8,10,1,N9,0,0,0,0,0,0,0,0,N9,0,0,0,0,0,0,0,0,n9,0,0,0,0,0,0,0,0,n9,0,0,0,0,0,0,0,0
21/08/11,06:48:15,67 31.1533 N,019 58.4013 E,131.11,200.42,3956.1,10,1,N0,0,0,0,0,0,0,0,0,N0,0,0,0,0,0,0,0,0,n0,0,0,0,0,0,0,0,0,n0,0,0,0,0,0,0,0,0
21/08/11,06:48:21,67 30.9520 N,019 58.2029 E,128.75,200.77,3995.5,10,1,N1,3,3,3,2,2,2,2,2,N1,2,2,2,2,2,2,0,0,n1,0,0,0,0,0,0,0,0,n1,0,0,0,0,0,0,0,0
21/08/11,06:48:27,67 30.7547 N,019 58.0046 E,126.61,201.21,4034.1,10,1,N2,1,0,0,0,0,0,0,0,N2,0,0,0,0,0,0,0,0,n2,0,0,0,0,0,0,0,0,n2,0,0,0,0,0,0,0,0
21/08/11,06:48:32,67 30.5939 N,019 57.8381 E,124.40,201.77,4066.3,10,1,N3,0,0,0,0,0,0,0,0,N3,0,0,0,0,0,0,0,0,n3,0,0,0,0,0,0,0,0,n3,0,0,0,0,0,0,0,0
21/08/11,06:48:38,67 30.4045 N,019 57.6359 E,122.66,202.43,4102.1,10,1,N4,1,0,0,0,0,0,0,0,N4,0,0,0,0,0,0,0,0,n4,0,0,0,0,0,0,0,0,n4,0,0,0,0,0,0,0,0
21/08/11,06:48:45,67 30.1864 N,019 57.3937 E,122.24,203.31,4135.2,10,1,N5,1,0,0,0,0,0,0,0,N5,0,0,0,0,0,0,0,0,n5,0,0,0,0,0,0,0,0,n5,0,0,0,0,0,0,0,0
21/08/11,06:48:51,67 29.9980 N,019 57.1775 E,124.44,203.92,4156.7,10,1,N6,1,0,0,0,0,0,0,0,N6,0,0,0,0,0,0,0,0,n6,0,0,0,0,0,0,0,0,n6,0,0,0,0,0,0,0,0
21/08/11,06:48:57,67 29.8086 N,019 56.9534 E,125.70,204.53,4178.7,10,1,N7,1,0,0,0,0,0,0,0,N7,0,0,0,0,0,0,0,0,n7,0,0,0,0,0,0,0,0,n7,0,0,0,0,0,0,0,0
21/08/11,06:49:02,67 29.6499 N,019 56.7611 E,126.71,205.03,4197.4,10,1,N8,0,0,0,0,0,0,0,0,N8,0,0,0,0,0,0,0,0,n8,0,0,0,0,0,0,0,0,n8,0,0,0,0,0,0,0,0
21/08/11,06:49:08,67 29.4585 N,019 56.5241 E,128.00,205.49,4219.2,09,1,N9,0,0,0,0,0,0,0,0,N9,0,0,0,0,0,0,0,0,n9,0,0,0,0,0,0,0,0,n9,0,0,0,0,0,0,0,0
21/08/11,06:49:15,67 29.2333 N,019 56.2415 E,129.50,205.75,4245.3,09,1,N0,0,0,0,0,0,0,0,0,N0,0,0,0,0,0,0,0,0,n0,0,0,0,0,0,0,0,0,n0,0,0,0,0,0,0,0,0
21/08/11,06:49:21,67 29.0390 N,019 55.9950 E,130.47,205.98,4266.7,09,1,N1,2,2,2,2,2,1,1,1,N1,1,1,1,1,1,1,0,0,n1,0,0,0,0,0,0,0,0,n1,0,0,0,0,0,0,0,0
21/08/11,06:49:27,67 28.8435 N,019 55.7455 E,131.26,206.06,4290.4,09,1,N2,1,0,0,0,0,0,0,0,N2,0,0,0,0,0,0,0,0,n2,0,0,0,0,0,0,0,0,n2,0,0,0,0,0,0,0,0
21/08/11,06:49:32,67 28.6799 N,019 55.5369 E,131.71,206.01,4310.7,09,1,N3,1,1,1,0,0,0,0,0,N3,0,0,0,0,0,0,0,0,n3,0,0,0,0,0,0,0,0,n3,0,0,0,0,0,0,0,0
21/08/11,06:49:38,67 28.4825 N,019 55.2870 E,132.26,205.72,4334.5,09,1,N4,1,1,0,0,0,0,0,0,N4,0,0,0,0,0,0,0,0,n4,0,0,0,0,0,0,0,0,n4,0,0,0,0,0,0,0,0
21/08/11,06:49:45,67 28.2483 N,019 54.9938 E,135.42,205.56,4350.7,09,1,N5,1,1,0,0,0,0,0,0,N5,0,0,0,0,0,0,0,0,n5,0,0,0,0,0,0,0,0,n5,0,0,0,0,0,0,0,0
21/08/11,06:49:51,67 28.0345 N,019 54.7347 E,143.59,204.68,4348.4,09,1,N6,1,0,0,0,0,0,0,0,N6,0,0,0,0,0,0,0,0,n6,0,0,0,0,0,0,0,0,n6,0,0,0,0,0,0,0,0
21/08/11,06:49:57,67 27.8100 N,019 54.4716 E,149.90,203.97,4342.9,09,1,N7,1,1,0,0,0,0,0,0,N7,0,0,0,0,0,0,0,0,n7,0,0,0,0,0,0,0,0,n7,0,0,0,0,0,0,0,0
21/08/11,06:50:02,67 27.6151 N,019 54.2506 E,154.77,203.33,4338.4,09,1,N8,1,1,0,0,0,0,0,0,N8,0,0,0,0,0,0,0,0,n8,0,0,0,0,0,0,0,0,n8,0,0,0,0,0,0,0,0
21/08/11,06:50:08,67 27.3728 N,019 53.9843 E,159.70,202.65,4334.4,09,1,N9,1,1,0,0,0,0,0,0,N9,0,0,0,0,0,0,0,0,n9,0,0,0,0,0,0,0,0,n9,0,0,0,0,0,0,0,0
21/08/11,06:50:15,67 27.0795 N,019 53.6745 E,164.88,201.76,4330.3,09,1,N0,1,1,0,0,0,0,0,0,N0,0,0,0,0,0,0,0,0,n0,0,0,0,0,0,0,0,0,n0,0,0,0,0,0,0,0,0
21/08/11,06:50:21,67 26.8203 N,019 53.4111 E,168.54,201.10,4327.6,09,1,N1,1,1,1,0,0,0,0,0,N1,0,0,0,0,0,0,0,0,n1,0,0,0,0,0,0,0,0,n1,0,0,0,0,0,0,0,0
21/08/11,06:50:27,67 26.5546 N,019 53.1510 E,171.58,200.40,4326.9,09,1,N2,6,6,5,5,5,5,5,5,N2,5,5,5,5,5,5,5,5,n2,0,0,0,0,0,0,0,0,n2,0,0,0,0,0,0,0,0
21/08/11,06:50:32,67 26.3293 N,019 52.9372 E,173.66,199.97,4326.3,09,1,N3,1,1,0,0,0,0,0,0,N3,0,0,0,0,0,0,0,0,n3,0,0,0,0,0,0,0,0,n3,0,0,0,0,0,0,0,0
21/08/11,06:50:38,67 26.0560 N,019 52.6811 E,175.07,199.74,4327.4,09,1,N4,1,0,0,0,0,0,0,0,N4,0,0,0,0,0,0,0,0,n4,0,0,0,0,0,0,0,0,n4,0,0,0,0,0,0,0,0
21/08/11,06:50:45,67 25.7339 N,019 52.3819 E,176.99,199.59,4326.7,09,1,N5,1,1,1,1,0,0,0,0,N5,0,0,0,0,0,0,0,0,n5,0,0,0,0,0,0,0,0,n5,0,0,0,0,0,0,0,0
21/08/11,06:50:51,67 25.4552 N,019 52.1234 E,178.51,199.66,4327.4,09,1,N6,1,0,0,0,0,0,0,0,N6,0,0,0,0,0,0,0,0,n6,0,0,0,0,0,0,0,0,n6,0,0,0,0,0,0,0,0
21/08/11,06:50:57,67 25.1733 N,019 51.8643 E,180.61,199.33,4324.9,09,1,N7,1,1,0,0,0,0,0,0,N7,0,0,0,0,0,0,0,0,n7,0,0,0,0,0,0,0,0,n7,0,0,0,0,0,0,0,0
21/08/11,06:51:02,67 24.9360 N,019 51.6474 E,182.01,199.39,4324.9,09,1,N8,1,0,0,0,0,0,0,0,N8,0,0,0,0,0,0,0,0,n8,0,0,0,0,0,0,0,0,n8,0,0,0,0,0,0,0,0
21/08/11,06:51:08,67 24.6492 N,019 51.3833 E,183.69,199.57,4323.8,09,1,N9,1,1,1,1,1,0,0,0,N9,0,0,0,0,0,0,0,0,n9,0,0,0,0,0,0,0,0,n9,0,0,0,0,0,0,0,0
21/08/11,06:51:15,67 24.3128 N,019 51.0624 E,185.40,200.43,4323.4,09,1,N0,1,0,0,0,0,0,0,0,N0,0,0,0,0,0,0,0,0,n0,0,0,0,0,0,0,0,0,n0,0,0,0,0,0,0,0,0
21/08/11,06:51:21,67 24.0234 N,019 50.7757 E,186.85,201.10,4322.7,09,1,N1,1,1,0,0,0,0,0,0,N1,0,0,0,0,0,0,0,0,n1,0,0,0,0,0,0,0,0,n1,0,0,0,0,0,0,0,0
21/08/11,06:51:27,67 23.7344 N,019 50.4761 E,187.48,202.00,4324.4,09,1,N2,1,1,0,0,0,0,0,0,N2,0,0,0,0,0,0,0,0,n2,0,0,0,0,0,0,0,0,n2,0,0,0,0,0,0,0,0
21/08/11,06:51:32,67 23.4934 N,019 50.2192 E,188.39,202.36,4323.1,09,1,N3,1,1,0,0,0,0,0,0,N3,0,0,0,0,0,0,0,0,n3,0,0,0,0,0,0,0,0,n3,0,0,0,0,0,0,0,0
21/08/11,06:51:38,67 23.2042 N,019 49.9021 E,189.10,203.13,4323.8,09,1,N4,1,0,0,0,0,0,0,0,N4,0,0,0,0,0,0,0,0,n4,0,0,0,0,0,0,0,0,n4,0,0,0,0,0,0,0,0
21/08/11,06:51:45,67 22.8684 N,019 49.5150 E,189.96,204.32,4323.2,09,1,N5,1,1,0,0,0,0,0,0,N5,0,0,0,0,0,0,0,0,n5,0,0,0,0,0,0,0,0,n5,0,0,0,0,0,0,0,0
21/08/11,06:51:51,67 22.5814 N,019 49.1696 E,190.69,205.01,4323.1,09,1,N6,1,0,0,0,0,0,0,0,N6,0,0,0,0,0,0,0,0,n6,0,0,0,0,0,0,0,0,n6,0,0,0,0,0,0,0,0
21/08/11,06:51:57,67 22.2953 N,019 48.8136 E,191.06,205.79,4324.5,09,1,N7,2,1,1,1,1,0,0,0,N7,0,0,0,0,0,0,0,0,n7,0,0,0,0,0,0,0,0,n7,0,0,0,0,0,0,0,0
21/08/11,06:52:02,67 22.0576 N,019 48.5094 E,191.72,206.37,4324.1,09,1,N8,1,1,0,0,0,0,0,0,N8,0,0,0,0,0,0,0,0,n8,0,0,0,0,0,0,0,0,n8,0,0,0,0,0,0,0,0
21/08/11,06:52:08,67 21.7723 N,019 48.1386 E,192.25,206.61,4324.7,09,1,N9,1,1,0,0,0,0,0,0,N9,0,0,0,0,0,0,0,0,n9,0,0,0,0,0,0,0,0,n9,0,0,0,0,0,0,0,0
21/08/11,06:52:15,67 21.4394 N,019 47.7015 E,192.99,206.84,4324.1,09,1,N0,1,1,1,1,0,0,0,0,N0,0,0,0,0,0,0,0,0,n0,0,0,0,0,0,0,0,0,n0,0,0,0,0,0,0,0,0
21/08/11,06:52:21,67 21.1533 N,019 47.3254 E,193.14,206.80,4325.3,09,1,N1,1,1,0,0,0,0,0,0,N1,0,0,0,0,0,0,0,0,n1,0,0,0,0,0,0,0,0,n1,0,0,0,0,0,0,0,0
21/08/11,06:52:27,67 20.8665 N,019 46.9487 E,193.68,206.80,4325.1,09,1,N2,1,1,0,0,0,0,0,0,N2,0,0,0,0,0,0,0,0,n2,0,0,0,0,0,0,0,0,n2,0,0,0,0,0,0,0,0
21/08/11,06:52:32,67 20.6264 N,019 46.6362 E,194.27,206.57,4324.1,09,1,N3,1,1,0,0,0,0,0,0,N3,0,0,0,0,0,0,0,0,n3,0,0,0,0,0,0,0,0,n3,0,0,0,0,0,0,0,0
21/08/11,06:52:38,67 20.3371 N,019 46.2633 E,194.57,206.32,4324.7,09,1,N4,1,1,1,1,1,0,0,0,N4,0,0,0,0,0,0,0,0,n4,0,0,0,0,0,0,0,0,n4,0,0,0,0,0,0,0,0
21/08/11,06:52:45,67 19.9979 N,019 45.8337 E,195.10,205.84,4321.9,09,1,N5,1,1,0,0,0,0,0,0,N5,0,0,0,0,0,0,0,0,n5,0,0,0,0,0,0,0,0,n5,0,0,0,0,0,0,0,0
21/08/11,06:52:51,67 19.7057 N,019 45.4716 E,194.87,205.38,4321.6,09,1,N6,1,1,0,0,0,0,0,0,N6,0,0,0,0,0,0,0,0,n6,0,0,0,0,0,0,0,0,n6,0,0,0,0,0,0,0,0
21/08/11,06:52:57,67 19.4126 N,019 45.1167 E,194.80,204.83,4320.6,09,1,N7,1,1,1,1,0,0,0,0,N7,0,0,0,0,0,0,0,0,n7,0,0,0,0,0,0,0,0,n7,0,0,0,0,0,0,0,0
21/08/11,06:53:02,67 19.1676 N,019 44.8273 E,194.33,204.39,4322.0,09,1,N8,1,1,0,0,0,0,0,0,N8,0,0,0,0,0,0,0,0,n8,0,0,0,0,0,0,0,0,n8,0,0,0,0,0,0,0,0
21/08/11,06:53:08,67 18.8730 N,019 44.4877 E,194.25,203.77,4320.7,09,1,N9,2,1,1,1,0,0,0,0,N9,0,0,0,0,0,0,0,0,n9,0,0,0,0,0,0,0,0,n9,0,0,0,0,0,0,0,0
21/08/11,06:53:15,67 18.5284 N,019 44.1024 E,193.35,203.13,4322.1,09,1,N0,2,2,2,2,1,1,1,1,N0,1,1,1,1,1,1,0,0,n0,0,0,0,0,0,0,0,0,n0,0,0,0,0,0,0,0,0
21/08/11,06:53:21,67 18.2326 N,019 43.7809 E,193.11,202.62,4322.5,09,1,N1,1,1,0,0,0,0,0,0,N1,0,0,0,0,0,0,0,0,n1,0,0,0,0,0,0,0,0,n1,0,0,0,0,0,0,0,0
21/08/11,06:53:27,67 17.9361 N,019 43.4678 E,192.69,201.97,4323.5,09,1,N2,1,1,0,0,0,0,0,0,N2,0,0,0,0,0,0,0,0,n2,0,0,0,0,0,0,0,0,n2,0,0,0,0,0,0,0,0
21/08/11,06:53:32,67 17.6882 N,019 43.2135 E,192.64,201.51,4323.3,09,1,N3,1,1,0,0,0,0,0,0,N3,0,0,0,0,0,0,0,0,n3,0,0,0,0,0,0,0,0,n3,0,0,0,0,0,0,0,0
21/08/11,06:53:38,67 17.3895 N,019 42.9150 E,193.00,200.94,4322.5,09,1,N4,8,8,7,7,7,7,7,7,N4,6,6,6,6,6,6,6,5,n4,0,0,0,0,0,0,0,0,n4,0,0,0,0,0,0,0,0
21/08/11,06:53:45,67 17.0397 N,019 42.5733 E,192.96,200.58,4322.7,09,1,N5,1,0,0,0,0,0,0,0,N5,0,0,0,0,0,0,0,0,n5,0,0,0,0,0,0,0,0,n5,0,0,0,0,0,0,0,0
21/08/11,06:53:51,67 16.7384 N,019 42.2836 E,193.72,200.32,4321.9,09,1,N6,1,1,0,0,0,0,0,0,N6,0,0,0,0,0,0,0,0,n6,0,0,0,0,0,0,0,0,n6,0,0,0,0,0,0,0,0
21/08/11,06:53:57,67 16.4357 N,019 41.9966 E,194.34,200.08,4319.8,09,1,N7,1,1,0,0,0,0,0,0,N7,0,0,0,0,0,0,0,0,n7,0,0,0,0,0,0,0,0,n7,0,0,0,0,0,0,0,0